Year,Month,Day,Hour,Minute,Value (Times are PST for temperature in C)
2006,08,17,00,00,12.40
2006,08,17,00,01,12.40
2006,08,17,00,02,12.40
2006,08,17,00,03,12.40
2006,08,17,00,04,12.40
2006,08,17,00,05,12.40
2006,08,17,00,06,12.40
2006,08,17,00,07,12.40
2006,08,17,00,08,12.40
2006,08,17,00,09,12.40
2006,08,17,00,10,12.40
2006,08,17,00,11,12.40
2006,08,17,00,12,12.30
2006,08,17,00,13,12.30
2006,08,17,00,14,12.30
2006,08,17,00,15,12.30
2006,08,17,00,16,12.30
2006,08,17,00,17,12.30
2006,08,17,00,18,12.30
2006,08,17,00,19,12.30
2006,08,17,00,20,12.30
2006,08,17,00,21,12.30
2006,08,17,00,22,12.20
2006,08,17,00,23,12.20
2006,08,17,00,24,12.20
2006,08,17,00,25,12.20
2006,08,17,00,26,12.10
2006,08,17,00,27,12.10
2006,08,17,00,28,12.10
2006,08,17,00,29,12.10
2006,08,17,00,30,12.00
2006,08,17,00,31,12.00
2006,08,17,00,32,12.00
2006,08,17,00,33,12.00
2006,08,17,00,34,12.00
2006,08,17,00,35,11.90
2006,08,17,00,36,11.90
2006,08,17,00,37,11.90
2006,08,17,00,38,11.90
2006,08,17,00,39,11.80
2006,08,17,00,40,11.80
2006,08,17,00,41,11.80
2006,08,17,00,42,11.80
2006,08,17,00,43,11.80
2006,08,17,00,44,11.80
2006,08,17,00,45,11.80
2006,08,17,00,46,11.80
2006,08,17,00,47,11.80
2006,08,17,00,48,11.80
2006,08,17,00,49,11.80
2006,08,17,00,50,11.80
2006,08,17,00,51,11.80
2006,08,17,00,52,11.80
2006,08,17,00,53,11.80
2006,08,17,00,54,11.80
2006,08,17,00,55,11.80
2006,08,17,00,56,11.80
2006,08,17,00,57,11.80
2006,08,17,00,58,11.80
2006,08,17,00,59,11.80
2006,08,17,01,00,11.70
2006,08,17,01,01,11.70
2006,08,17,01,02,11.70
2006,08,17,01,03,11.70
2006,08,17,01,04,11.70
2006,08,17,01,05,11.70
2006,08,17,01,06,11.70
2006,08,17,01,07,11.70
2006,08,17,01,08,11.70
2006,08,17,01,09,11.70
2006,08,17,01,10,11.70
2006,08,17,01,11,11.60
2006,08,17,01,12,11.60
2006,08,17,01,13,11.60
2006,08,17,01,14,11.60
2006,08,17,01,15,11.60
2006,08,17,01,16,11.60
2006,08,17,01,17,11.60
2006,08,17,01,18,11.60
2006,08,17,01,19,11.60
2006,08,17,01,20,11.60
2006,08,17,01,21,11.60
2006,08,17,01,22,11.60
2006,08,17,01,23,11.60
2006,08,17,01,24,11.40
2006,08,17,01,25,11.40
2006,08,17,01,26,11.40
2006,08,17,01,27,11.40
2006,08,17,01,28,11.40
2006,08,17,01,29,11.40
2006,08,17,01,30,11.40
2006,08,17,01,31,11.40
2006,08,17,01,32,11.40
2006,08,17,01,33,11.30
2006,08,17,01,34,11.30
2006,08,17,01,35,11.30
2006,08,17,01,36,11.30
2006,08,17,01,37,11.30
2006,08,17,01,38,11.30
2006,08,17,01,39,11.20
2006,08,17,01,40,11.20
2006,08,17,01,41,11.20
2006,08,17,01,42,11.20
2006,08,17,01,43,11.20
2006,08,17,01,44,11.20
2006,08,17,01,45,11.20
2006,08,17,01,46,11.20
2006,08,17,01,47,11.20
2006,08,17,01,48,11.20
2006,08,17,01,49,11.20
2006,08,17,01,50,11.20
2006,08,17,01,51,11.20
2006,08,17,01,52,11.20
2006,08,17,01,53,11.20
2006,08,17,01,54,11.20
2006,08,17,01,55,11.20
2006,08,17,01,56,11.20
2006,08,17,01,57,11.20
2006,08,17,01,58,11.20
2006,08,17,01,59,11.20
2006,08,17,02,00,11.20
2006,08,17,02,01,11.20
2006,08,17,02,02,11.20
2006,08,17,02,03,11.20
2006,08,17,02,04,11.20
2006,08,17,02,05,11.20
2006,08,17,02,06,11.20
2006,08,17,02,07,11.20
2006,08,17,02,08,11.20
2006,08,17,02,09,11.20
2006,08,17,02,10,11.20
2006,08,17,02,11,11.10
2006,08,17,02,12,11.10
2006,08,17,02,13,11.10
2006,08,17,02,14,11.10
2006,08,17,02,15,11.10
2006,08,17,02,16,11.10
2006,08,17,02,17,11.10
2006,08,17,02,18,11.10
2006,08,17,02,19,11.10
2006,08,17,02,20,11.10
2006,08,17,02,21,11.10
2006,08,17,02,22,11.10
2006,08,17,02,23,11.10
2006,08,17,02,24,11.10
2006,08,17,02,25,11.10
2006,08,17,02,26,11.10
2006,08,17,02,27,11.10
2006,08,17,02,28,11.10
2006,08,17,02,29,11.00
2006,08,17,02,30,10.90
2006,08,17,02,31,10.90
2006,08,17,02,32,10.90
2006,08,17,02,33,10.90
2006,08,17,02,34,10.90
2006,08,17,02,35,10.90
2006,08,17,02,36,10.90
2006,08,17,02,37,10.90
2006,08,17,02,38,10.90
2006,08,17,02,39,10.90
2006,08,17,02,40,10.90
2006,08,17,02,41,10.90
2006,08,17,02,42,10.80
2006,08,17,02,43,10.80
2006,08,17,02,44,10.80
2006,08,17,02,45,10.80
2006,08,17,02,46,10.80
2006,08,17,02,47,10.70
2006,08,17,02,48,10.70
2006,08,17,02,49,10.70
2006,08,17,02,50,10.70
2006,08,17,02,51,10.70
2006,08,17,02,52,10.70
2006,08,17,02,53,10.60
2006,08,17,02,54,10.60
2006,08,17,02,55,10.60
2006,08,17,02,56,10.60
2006,08,17,02,57,10.60
2006,08,17,02,58,10.60
2006,08,17,02,59,10.60
2006,08,17,03,00,10.60
2006,08,17,03,01,10.60
2006,08,17,03,02,10.60
2006,08,17,03,03,10.70
2006,08,17,03,04,10.70
2006,08,17,03,05,10.70
2006,08,17,03,06,10.70
2006,08,17,03,07,10.70
2006,08,17,03,08,10.70
2006,08,17,03,09,10.70
2006,08,17,03,10,10.70
2006,08,17,03,11,10.70
2006,08,17,03,12,10.60
2006,08,17,03,13,10.60
2006,08,17,03,14,10.60
2006,08,17,03,15,10.60
2006,08,17,03,16,10.60
2006,08,17,03,17,10.50
2006,08,17,03,18,10.40
2006,08,17,03,19,10.40
2006,08,17,03,20,10.40
2006,08,17,03,21,10.40
2006,08,17,03,22,10.40
2006,08,17,03,23,10.40
2006,08,17,03,24,10.40
2006,08,17,03,25,10.40
2006,08,17,03,26,10.40
2006,08,17,03,27,10.40
2006,08,17,03,28,10.40
2006,08,17,03,29,10.40
2006,08,17,03,30,10.40
2006,08,17,03,31,10.40
2006,08,17,03,32,10.50
2006,08,17,03,33,10.60
2006,08,17,03,34,10.60
2006,08,17,03,35,10.60
2006,08,17,03,36,10.60
2006,08,17,03,37,10.60
2006,08,17,03,38,10.60
2006,08,17,03,39,10.60
2006,08,17,03,40,10.60
2006,08,17,03,41,10.60
2006,08,17,03,42,10.60
2006,08,17,03,43,10.60
2006,08,17,03,44,10.60
2006,08,17,03,45,10.60
2006,08,17,03,46,10.60
2006,08,17,03,47,10.60
2006,08,17,03,48,10.60
2006,08,17,03,49,10.60
2006,08,17,03,50,10.60
2006,08,17,03,51,10.50
2006,08,17,03,52,10.40
2006,08,17,03,53,10.40
2006,08,17,03,54,10.40
2006,08,17,03,55,10.40
2006,08,17,03,56,10.40
2006,08,17,03,57,10.40
2006,08,17,03,58,10.40
2006,08,17,03,59,10.40
2006,08,17,04,00,10.30
2006,08,17,04,01,10.30
2006,08,17,04,02,10.30
2006,08,17,04,03,10.30
2006,08,17,04,04,10.20
2006,08,17,04,05,10.20
2006,08,17,04,06,10.20
2006,08,17,04,07,10.20
2006,08,17,04,08,10.20
2006,08,17,04,09,10.20
2006,08,17,04,10,10.20
2006,08,17,04,11,10.20
2006,08,17,04,12,10.20
2006,08,17,04,13,10.10
2006,08,17,04,14,10.10
2006,08,17,04,15,10.10
2006,08,17,04,16,10.10
2006,08,17,04,17,10.20
2006,08,17,04,18,10.20
2006,08,17,04,19,10.20
2006,08,17,04,20,10.20
2006,08,17,04,21,10.20
2006,08,17,04,22,10.20
2006,08,17,04,23,10.20
2006,08,17,04,24,10.20
2006,08,17,04,25,10.20
2006,08,17,04,26,10.20
2006,08,17,04,27,10.20
2006,08,17,04,28,10.20
2006,08,17,04,29,10.20
2006,08,17,04,30,10.20
2006,08,17,04,31,10.30
2006,08,17,04,32,10.30
2006,08,17,04,33,10.30
2006,08,17,04,34,10.30
2006,08,17,04,35,10.30
2006,08,17,04,36,10.30
2006,08,17,04,37,10.30
2006,08,17,04,38,10.40
2006,08,17,04,39,10.40
2006,08,17,04,40,10.40
2006,08,17,04,41,10.40
2006,08,17,04,42,10.40
2006,08,17,04,43,10.40
2006,08,17,04,44,10.40
2006,08,17,04,45,10.40
2006,08,17,04,46,10.40
2006,08,17,04,47,10.30
2006,08,17,04,48,10.30
2006,08,17,04,49,10.30
2006,08,17,04,50,10.30
2006,08,17,04,51,10.30
2006,08,17,04,52,10.20
2006,08,17,04,53,10.20
2006,08,17,04,54,10.20
2006,08,17,04,55,10.20
2006,08,17,04,56,10.20
2006,08,17,04,57,10.20
2006,08,17,04,58,10.20
2006,08,17,04,59,10.20
2006,08,17,05,00,10.20
2006,08,17,05,01,10.20
2006,08,17,05,02,10.20
2006,08,17,05,03,10.20
2006,08,17,05,04,10.20
2006,08,17,05,05,10.10
2006,08,17,05,06,10.10
2006,08,17,05,07,10.10
2006,08,17,05,08,10.10
2006,08,17,05,09,10.10
2006,08,17,05,10,10.10
2006,08,17,05,11,10.10
2006,08,17,05,12,10.10
2006,08,17,05,13,10.10
2006,08,17,05,14,10.10
2006,08,17,05,15,10.10
2006,08,17,05,16,10.10
2006,08,17,05,17,10.10
2006,08,17,05,18,10.10
2006,08,17,05,19,10.10
2006,08,17,05,20,10.10
2006,08,17,05,21,10.10
2006,08,17,05,22,10.10
2006,08,17,05,23,10.10
2006,08,17,05,24,10.10
2006,08,17,05,25,10.10
2006,08,17,05,26,10.10
2006,08,17,05,27,10.10
2006,08,17,05,28,10.10
2006,08,17,05,29,10.10
2006,08,17,05,30,10.10
2006,08,17,05,31,10.10
2006,08,17,05,32,10.10
2006,08,17,05,33,10.10
2006,08,17,05,34,10.10
2006,08,17,05,35,10.10
2006,08,17,05,36,10.10
2006,08,17,05,37,10.10
2006,08,17,05,38,10.10
2006,08,17,05,39,10.10
2006,08,17,05,40,10.10
2006,08,17,05,41,10.10
2006,08,17,05,42,10.10
2006,08,17,05,43,10.10
2006,08,17,05,44,10.10
2006,08,17,05,45,10.10
2006,08,17,05,46,9.90
2006,08,17,05,47,9.90
2006,08,17,05,48,9.90
2006,08,17,05,49,9.90
2006,08,17,05,50,9.90
2006,08,17,05,51,9.90
2006,08,17,05,52,9.90
2006,08,17,05,53,9.90
2006,08,17,05,54,9.90
2006,08,17,05,55,9.90
2006,08,17,05,56,9.90
2006,08,17,05,57,9.90
2006,08,17,05,58,9.90
2006,08,17,05,59,9.80
2006,08,17,06,00,9.80
2006,08,17,06,01,9.80
2006,08,17,06,02,9.80
2006,08,17,06,03,9.80
2006,08,17,06,04,9.70
2006,08,17,06,05,9.70
2006,08,17,06,06,9.70
2006,08,17,06,07,9.70
2006,08,17,06,08,9.70
2006,08,17,06,09,9.70
2006,08,17,06,10,9.70
2006,08,17,06,11,9.70
2006,08,17,06,12,9.70
2006,08,17,06,13,9.70
2006,08,17,06,14,9.60
2006,08,17,06,15,9.60
2006,08,17,06,16,9.60
2006,08,17,06,17,9.60
2006,08,17,06,18,9.60
2006,08,17,06,19,9.60
2006,08,17,06,20,9.60
2006,08,17,06,21,9.50
2006,08,17,06,22,9.50
2006,08,17,06,23,9.50
2006,08,17,06,24,9.50
2006,08,17,06,25,9.50
2006,08,17,06,26,9.40
2006,08,17,06,27,9.40
2006,08,17,06,28,9.40
2006,08,17,06,29,9.40
2006,08,17,06,30,9.40
2006,08,17,06,31,9.40
2006,08,17,06,32,9.40
2006,08,17,06,33,9.40
2006,08,17,06,34,9.30
2006,08,17,06,35,9.30
2006,08,17,06,36,9.30
2006,08,17,06,37,9.30
2006,08,17,06,38,9.30
2006,08,17,06,39,9.30
2006,08,17,06,40,9.30
2006,08,17,06,41,9.30
2006,08,17,06,42,9.40
2006,08,17,06,43,9.40
2006,08,17,06,44,9.40
2006,08,17,06,45,9.40
2006,08,17,06,46,9.40
2006,08,17,06,47,9.50
2006,08,17,06,48,9.50
2006,08,17,06,49,9.50
2006,08,17,06,50,9.50
2006,08,17,06,51,9.50
2006,08,17,06,52,9.60
2006,08,17,06,53,9.60
2006,08,17,06,54,9.60
2006,08,17,06,55,9.70
2006,08,17,06,56,9.70
2006,08,17,06,57,9.70
2006,08,17,06,58,9.70
2006,08,17,06,59,9.70
2006,08,17,07,00,9.70
2006,08,17,07,01,9.70
2006,08,17,07,02,9.70
2006,08,17,07,03,9.70
2006,08,17,07,04,9.70
2006,08,17,07,05,9.80
2006,08,17,07,06,9.80
2006,08,17,07,07,9.80
2006,08,17,07,08,9.90
2006,08,17,07,09,9.90
2006,08,17,07,10,9.90
2006,08,17,07,11,9.90
2006,08,17,07,12,9.90
2006,08,17,07,13,9.90
2006,08,17,07,14,9.90
2006,08,17,07,15,9.90
2006,08,17,07,16,9.90
2006,08,17,07,17,10.00
2006,08,17,07,18,10.10
2006,08,17,07,19,10.10
2006,08,17,07,20,10.10
2006,08,17,07,21,10.10
2006,08,17,07,22,10.10
2006,08,17,07,23,10.20
2006,08,17,07,24,10.20
2006,08,17,07,25,10.20
2006,08,17,07,26,10.20
2006,08,17,07,27,10.30
2006,08,17,07,28,10.30
2006,08,17,07,29,10.40
2006,08,17,07,30,10.40
2006,08,17,07,31,10.40
2006,08,17,07,32,10.50
2006,08,17,07,33,10.60
2006,08,17,07,34,10.60
2006,08,17,07,35,10.60
2006,08,17,07,36,10.60
2006,08,17,07,37,10.60
2006,08,17,07,38,10.70
2006,08,17,07,39,10.70
2006,08,17,07,40,10.80
2006,08,17,07,41,10.80
2006,08,17,07,42,10.90
2006,08,17,07,43,10.90
2006,08,17,07,44,10.90
2006,08,17,07,45,11.00
2006,08,17,07,46,11.10
2006,08,17,07,47,11.10
2006,08,17,07,48,11.20
2006,08,17,07,49,11.20
2006,08,17,07,50,11.30
2006,08,17,07,51,11.30
2006,08,17,07,52,11.40
2006,08,17,07,53,11.40
2006,08,17,07,54,11.50
2006,08,17,07,55,11.60
2006,08,17,07,56,11.60
2006,08,17,07,57,11.60
2006,08,17,07,58,11.60
2006,08,17,07,59,11.60
2006,08,17,08,00,11.70
2006,08,17,08,01,11.70
2006,08,17,08,02,11.80
2006,08,17,08,03,11.80
2006,08,17,08,04,11.80
2006,08,17,08,05,11.80
2006,08,17,08,06,11.90
2006,08,17,08,07,12.00
2006,08,17,08,08,12.10
2006,08,17,08,09,12.10
2006,08,17,08,10,12.20
2006,08,17,08,11,12.30
2006,08,17,08,12,12.30
2006,08,17,08,13,12.30
2006,08,17,08,14,12.30
2006,08,17,08,15,12.40
2006,08,17,08,16,12.40
2006,08,17,08,17,12.50
2006,08,17,08,18,12.50
2006,08,17,08,19,12.60
2006,08,17,08,20,12.60
2006,08,17,08,21,12.70
2006,08,17,08,22,12.80
2006,08,17,08,23,13.00
2006,08,17,08,24,13.10
2006,08,17,08,25,13.10
2006,08,17,08,26,13.30
2006,08,17,08,27,13.30
2006,08,17,08,28,13.40
2006,08,17,08,29,13.50
2006,08,17,08,30,13.60
2006,08,17,08,31,13.60
2006,08,17,08,32,13.70
2006,08,17,08,33,13.70
2006,08,17,08,34,13.80
2006,08,17,08,35,13.80
2006,08,17,08,36,13.90
2006,08,17,08,37,13.90
2006,08,17,08,38,13.90
2006,08,17,08,39,13.90
2006,08,17,08,40,13.90
2006,08,17,08,41,14.00
2006,08,17,08,42,14.00
2006,08,17,08,43,14.00
2006,08,17,08,44,14.00
2006,08,17,08,45,13.90
2006,08,17,08,46,13.90
2006,08,17,08,47,13.90
2006,08,17,08,48,13.90
2006,08,17,08,49,13.90
2006,08,17,08,50,13.90
2006,08,17,08,51,13.90
2006,08,17,08,52,14.00
2006,08,17,08,53,14.00
2006,08,17,08,54,14.00
2006,08,17,08,55,14.00
2006,08,17,08,56,14.00
2006,08,17,08,57,14.00
2006,08,17,08,58,14.00
2006,08,17,08,59,14.10
2006,08,17,09,00,14.10
2006,08,17,09,01,14.20
2006,08,17,09,02,14.20
2006,08,17,09,03,14.20
2006,08,17,09,04,14.20
2006,08,17,09,05,14.20
2006,08,17,09,06,14.30
2006,08,17,09,07,14.40
2006,08,17,09,08,14.40
2006,08,17,09,09,14.50
2006,08,17,09,10,14.50
2006,08,17,09,11,14.50
2006,08,17,09,12,14.60
2006,08,17,09,13,14.60
2006,08,17,09,14,14.60
2006,08,17,09,15,14.70
2006,08,17,09,16,14.70
2006,08,17,09,17,14.70
2006,08,17,09,18,14.70
2006,08,17,09,19,14.80
2006,08,17,09,20,14.80
2006,08,17,09,21,14.80
2006,08,17,09,22,14.80
2006,08,17,09,23,14.90
2006,08,17,09,24,14.90
2006,08,17,09,25,15.00
2006,08,17,09,26,15.00
2006,08,17,09,27,15.00
2006,08,17,09,28,15.10
2006,08,17,09,29,15.10
2006,08,17,09,30,15.20
2006,08,17,09,31,15.20
2006,08,17,09,32,15.30
2006,08,17,09,33,15.30
2006,08,17,09,34,15.30
2006,08,17,09,35,15.30
2006,08,17,09,36,15.30
2006,08,17,09,37,15.30
2006,08,17,09,38,15.30
2006,08,17,09,39,15.30
2006,08,17,09,40,15.30
2006,08,17,09,41,15.30
2006,08,17,09,42,15.30
2006,08,17,09,43,15.30
2006,08,17,09,44,15.30
2006,08,17,09,45,15.40
2006,08,17,09,46,15.50
2006,08,17,09,47,15.50
2006,08,17,09,48,15.50
2006,08,17,09,49,15.60
2006,08,17,09,50,15.60
2006,08,17,09,51,15.60
2006,08,17,09,52,15.70
2006,08,17,09,53,15.70
2006,08,17,09,54,15.80
2006,08,17,09,55,15.80
2006,08,17,09,56,15.80
2006,08,17,09,57,15.80
2006,08,17,09,58,15.70
2006,08,17,09,59,15.70
2006,08,17,10,00,15.70
2006,08,17,10,01,15.70
2006,08,17,10,02,15.70
2006,08,17,10,03,15.60
2006,08,17,10,04,15.60
2006,08,17,10,05,15.60
2006,08,17,10,06,15.60
2006,08,17,10,07,15.60
2006,08,17,10,08,15.50
2006,08,17,10,09,15.50
2006,08,17,10,10,15.50
2006,08,17,10,11,15.60
2006,08,17,10,12,15.60
2006,08,17,10,13,15.60
2006,08,17,10,14,15.60
2006,08,17,10,15,15.70
2006,08,17,10,16,15.60
2006,08,17,10,17,15.60
2006,08,17,10,18,15.60
2006,08,17,10,19,15.60
2006,08,17,10,20,15.60
2006,08,17,10,21,15.60
2006,08,17,10,22,15.60
2006,08,17,10,23,15.60
2006,08,17,10,24,15.70
2006,08,17,10,25,15.60
2006,08,17,10,26,15.60
2006,08,17,10,27,15.60
2006,08,17,10,28,15.60
2006,08,17,10,29,15.60
2006,08,17,10,30,15.60
2006,08,17,10,31,15.60
2006,08,17,10,32,15.60
2006,08,17,10,33,15.60
2006,08,17,10,34,15.50
2006,08,17,10,35,15.50
2006,08,17,10,36,15.60
2006,08,17,10,37,15.60
2006,08,17,10,38,15.60
2006,08,17,10,39,15.70
2006,08,17,10,40,15.70
2006,08,17,10,41,15.70
2006,08,17,10,42,15.60
2006,08,17,10,43,15.60
2006,08,17,10,44,15.60
2006,08,17,10,45,15.60
2006,08,17,10,46,15.70
2006,08,17,10,47,15.70
2006,08,17,10,48,15.70
2006,08,17,10,49,15.70
2006,08,17,10,50,15.70
2006,08,17,10,51,15.70
2006,08,17,10,52,15.70
2006,08,17,10,53,15.70
2006,08,17,10,54,15.70
2006,08,17,10,55,15.70
2006,08,17,10,56,15.70
2006,08,17,10,57,15.70
2006,08,17,10,58,15.70
2006,08,17,10,59,15.70
2006,08,17,11,00,15.70
2006,08,17,11,01,15.60
2006,08,17,11,02,15.60
2006,08,17,11,03,15.60
2006,08,17,11,04,15.60
2006,08,17,11,05,15.60
2006,08,17,11,06,15.70
2006,08,17,11,07,15.80
2006,08,17,11,08,15.90
2006,08,17,11,09,16.00
2006,08,17,11,10,16.10
2006,08,17,11,11,16.10
2006,08,17,11,12,16.10
2006,08,17,11,13,16.10
2006,08,17,11,14,16.10
2006,08,17,11,15,16.10
2006,08,17,11,16,16.20
2006,08,17,11,17,16.30
2006,08,17,11,18,16.30
2006,08,17,11,19,16.30
2006,08,17,11,20,16.40
2006,08,17,11,21,16.40
2006,08,17,11,22,16.40
2006,08,17,11,23,16.40
2006,08,17,11,24,16.40
2006,08,17,11,25,16.40
2006,08,17,11,26,16.40
2006,08,17,11,27,16.40
2006,08,17,11,28,16.40
2006,08,17,11,29,16.40
2006,08,17,11,30,16.40
2006,08,17,11,31,16.40
2006,08,17,11,32,16.40
2006,08,17,11,33,16.50
2006,08,17,11,34,16.60
2006,08,17,11,35,16.60
2006,08,17,11,36,16.70
2006,08,17,11,37,16.70
2006,08,17,11,38,16.70
2006,08,17,11,39,16.70
2006,08,17,11,40,16.70
2006,08,17,11,41,16.60
2006,08,17,11,42,16.60
2006,08,17,11,43,16.60
2006,08,17,11,44,16.50
2006,08,17,11,45,16.40
2006,08,17,11,46,16.30
2006,08,17,11,47,16.40
2006,08,17,11,48,16.40
2006,08,17,11,49,16.30
2006,08,17,11,50,16.30
2006,08,17,11,51,16.30
2006,08,17,11,52,16.30
2006,08,17,11,53,16.20
2006,08,17,11,54,16.10
2006,08,17,11,55,16.10
2006,08,17,11,56,16.10
2006,08,17,11,57,16.10
2006,08,17,11,58,16.10
2006,08,17,11,59,16.20
2006,08,17,12,00,16.20
2006,08,17,12,01,16.20
2006,08,17,12,02,16.20
2006,08,17,12,03,16.30
2006,08,17,12,04,16.40
2006,08,17,12,05,16.40
2006,08,17,12,06,16.40
2006,08,17,12,07,16.30
2006,08,17,12,08,16.30
2006,08,17,12,09,16.40
2006,08,17,12,10,16.40
2006,08,17,12,11,16.40
2006,08,17,12,12,16.40
2006,08,17,12,13,16.20
2006,08,17,12,14,16.20
2006,08,17,12,15,16.20
2006,08,17,12,16,16.20
2006,08,17,12,17,16.30
2006,08,17,12,18,16.40
2006,08,17,12,19,16.40
2006,08,17,12,20,16.60
2006,08,17,12,21,16.40
2006,08,17,12,22,16.30
2006,08,17,12,23,16.20
2006,08,17,12,24,16.10
2006,08,17,12,25,16.10
2006,08,17,12,26,16.10
2006,08,17,12,27,16.10
2006,08,17,12,28,15.90
2006,08,17,12,29,15.90
2006,08,17,12,30,16.10
2006,08,17,12,31,16.10
2006,08,17,12,32,16.20
2006,08,17,12,33,16.30
2006,08,17,12,34,16.30
2006,08,17,12,35,16.30
2006,08,17,12,36,16.30
2006,08,17,12,37,16.20
2006,08,17,12,38,16.20
2006,08,17,12,39,16.10
2006,08,17,12,40,16.10
2006,08,17,12,41,16.10
2006,08,17,12,42,16.10
2006,08,17,12,43,16.00
2006,08,17,12,44,15.90
2006,08,17,12,45,15.80
2006,08,17,12,46,15.80
2006,08,17,12,47,15.90
2006,08,17,12,48,15.80
2006,08,17,12,49,15.80
2006,08,17,12,50,15.70
2006,08,17,12,51,15.60
2006,08,17,12,52,15.60
2006,08,17,12,53,15.60
2006,08,17,12,54,15.60
2006,08,17,12,55,15.60
2006,08,17,12,56,15.70
2006,08,17,12,57,15.70
2006,08,17,12,58,15.70
2006,08,17,12,59,15.80
2006,08,17,13,00,15.70
2006,08,17,13,01,15.70
2006,08,17,13,02,15.70
2006,08,17,13,03,15.80
2006,08,17,13,04,15.80
2006,08,17,13,05,15.80
2006,08,17,13,06,15.90
2006,08,17,13,07,16.00
2006,08,17,13,08,16.10
2006,08,17,13,09,16.20
2006,08,17,13,10,16.10
2006,08,17,13,11,16.10
2006,08,17,13,12,16.20
2006,08,17,13,13,16.20
2006,08,17,13,14,16.20
2006,08,17,13,15,16.10
2006,08,17,13,16,16.10
2006,08,17,13,17,16.10
2006,08,17,13,18,16.10
2006,08,17,13,19,16.10
2006,08,17,13,20,16.10
2006,08,17,13,21,16.10
2006,08,17,13,22,16.20
2006,08,17,13,23,16.20
2006,08,17,13,24,16.20
2006,08,17,13,25,16.20
2006,08,17,13,26,16.20
2006,08,17,13,27,16.00
2006,08,17,13,28,15.90
2006,08,17,13,29,15.80
2006,08,17,13,30,15.70
2006,08,17,13,31,15.70
2006,08,17,13,32,15.60
2006,08,17,13,33,15.70
2006,08,17,13,34,15.70
2006,08,17,13,35,15.80
2006,08,17,13,36,15.80
2006,08,17,13,37,15.90
2006,08,17,13,38,15.80
2006,08,17,13,39,15.90
2006,08,17,13,40,16.00
2006,08,17,13,41,16.10
2006,08,17,13,42,16.20
2006,08,17,13,43,16.30
2006,08,17,13,44,16.20
2006,08,17,13,45,16.20
2006,08,17,13,46,16.20
2006,08,17,13,47,16.30
2006,08,17,13,48,16.30
2006,08,17,13,49,16.40
2006,08,17,13,50,16.40
2006,08,17,13,51,16.40
2006,08,17,13,52,16.50
2006,08,17,13,53,16.60
2006,08,17,13,54,16.50
2006,08,17,13,55,16.40
2006,08,17,13,56,16.30
2006,08,17,13,57,16.10
2006,08,17,13,58,16.10
2006,08,17,13,59,15.90
2006,08,17,14,00,15.80
2006,08,17,14,01,15.80
2006,08,17,14,02,15.80
2006,08,17,14,03,15.80
2006,08,17,14,04,15.80
2006,08,17,14,05,15.80
2006,08,17,14,06,15.80
2006,08,17,14,07,15.90
2006,08,17,14,08,16.10
2006,08,17,14,09,16.20
2006,08,17,14,10,16.20
2006,08,17,14,11,16.30
2006,08,17,14,12,16.50
2006,08,17,14,13,16.70
2006,08,17,14,14,16.60
2006,08,17,14,15,16.50
2006,08,17,14,16,16.40
2006,08,17,14,17,16.40
2006,08,17,14,18,16.40
2006,08,17,14,19,16.40
2006,08,17,14,20,16.40
2006,08,17,14,21,16.40
2006,08,17,14,22,16.60
2006,08,17,14,23,16.60
2006,08,17,14,24,16.60
2006,08,17,14,25,16.80
2006,08,17,14,26,16.90
2006,08,17,14,27,16.90
2006,08,17,14,28,17.10
2006,08,17,14,29,17.30
2006,08,17,14,30,17.40
2006,08,17,14,31,17.50
2006,08,17,14,32,17.80
2006,08,17,14,33,17.90
2006,08,17,14,34,18.10
2006,08,17,14,35,18.20
2006,08,17,14,36,18.30
2006,08,17,14,37,18.40
2006,08,17,14,38,18.50
2006,08,17,14,39,18.50
2006,08,17,14,40,18.40
2006,08,17,14,41,18.20
2006,08,17,14,42,18.10
2006,08,17,14,43,17.80
2006,08,17,14,44,17.70
2006,08,17,14,45,17.70
2006,08,17,14,46,17.80
2006,08,17,14,47,17.90
2006,08,17,14,48,18.00
2006,08,17,14,49,18.20
2006,08,17,14,50,18.20
2006,08,17,14,51,18.10
2006,08,17,14,52,18.10
2006,08,17,14,53,18.00
2006,08,17,14,54,18.10
2006,08,17,14,55,18.20
2006,08,17,14,56,18.20
2006,08,17,14,57,18.30
2006,08,17,14,58,18.30
2006,08,17,14,59,18.40
2006,08,17,15,00,18.40
2006,08,17,15,01,18.50
2006,08,17,15,02,18.50
2006,08,17,15,03,18.50
2006,08,17,15,04,18.50
2006,08,17,15,05,18.40
2006,08,17,15,06,18.40
2006,08,17,15,07,18.20
2006,08,17,15,08,18.20
2006,08,17,15,09,18.10
2006,08,17,15,10,18.10
2006,08,17,15,11,18.10
2006,08,17,15,12,18.00
2006,08,17,15,13,18.10
2006,08,17,15,14,18.00
2006,08,17,15,15,17.90
2006,08,17,15,16,17.90
2006,08,17,15,17,17.90
2006,08,17,15,18,17.90
2006,08,17,15,19,17.80
2006,08,17,15,20,17.80
2006,08,17,15,21,17.90
2006,08,17,15,22,18.00
2006,08,17,15,23,18.10
2006,08,17,15,24,18.00
2006,08,17,15,25,18.00
2006,08,17,15,26,18.10
2006,08,17,15,27,18.20
2006,08,17,15,28,18.30
2006,08,17,15,29,18.40
2006,08,17,15,30,18.40
2006,08,17,15,31,18.30
2006,08,17,15,32,18.30
2006,08,17,15,33,18.40
2006,08,17,15,34,18.50
2006,08,17,15,35,18.60
2006,08,17,15,36,18.70
2006,08,17,15,37,18.70
2006,08,17,15,38,18.80
2006,08,17,15,39,18.90
2006,08,17,15,40,18.90
2006,08,17,15,41,18.90
2006,08,17,15,42,18.90
2006,08,17,15,43,18.70
2006,08,17,15,44,18.60
2006,08,17,15,45,18.60
2006,08,17,15,46,18.50
2006,08,17,15,47,18.40
2006,08,17,15,48,18.40
2006,08,17,15,49,18.50
2006,08,17,15,50,18.50
2006,08,17,15,51,18.40
2006,08,17,15,52,18.30
2006,08,17,15,53,18.40
2006,08,17,15,54,18.50
2006,08,17,15,55,18.60
2006,08,17,15,56,18.70
2006,08,17,15,57,18.60
2006,08,17,15,58,18.60
2006,08,17,15,59,18.50
2006,08,17,16,00,18.60
2006,08,17,16,01,18.60
2006,08,17,16,02,18.60
2006,08,17,16,03,18.50
2006,08,17,16,04,18.40
2006,08,17,16,05,18.30
2006,08,17,16,06,18.30
2006,08,17,16,07,18.30
2006,08,17,16,08,18.20
2006,08,17,16,09,18.20
2006,08,17,16,10,18.20
2006,08,17,16,11,18.20
2006,08,17,16,12,18.20
2006,08,17,16,13,18.30
2006,08,17,16,14,18.50
2006,08,17,16,15,18.50
2006,08,17,16,16,18.40
2006,08,17,16,17,18.40
2006,08,17,16,18,18.50
2006,08,17,16,19,18.60
2006,08,17,16,20,18.60
2006,08,17,16,21,18.60
2006,08,17,16,22,18.50
2006,08,17,16,23,18.50
2006,08,17,16,24,18.40
2006,08,17,16,25,18.40
2006,08,17,16,26,18.30
2006,08,17,16,27,18.30
2006,08,17,16,28,18.30
2006,08,17,16,29,18.40
2006,08,17,16,30,18.60
2006,08,17,16,31,18.60
2006,08,17,16,32,18.60
2006,08,17,16,33,18.70
2006,08,17,16,34,18.80
2006,08,17,16,35,18.80
2006,08,17,16,36,18.80
2006,08,17,16,37,18.90
2006,08,17,16,38,18.80
2006,08,17,16,39,18.80
2006,08,17,16,40,18.80
2006,08,17,16,41,18.80
2006,08,17,16,42,18.90
2006,08,17,16,43,18.90
2006,08,17,16,44,18.80
2006,08,17,16,45,18.80
2006,08,17,16,46,18.80
2006,08,17,16,47,18.80
2006,08,17,16,48,18.80
2006,08,17,16,49,18.70
2006,08,17,16,50,18.70
2006,08,17,16,51,18.70
2006,08,17,16,52,18.80
2006,08,17,16,53,18.90
2006,08,17,16,54,18.90
2006,08,17,16,55,18.90
2006,08,17,16,56,18.90
2006,08,17,16,57,18.90
2006,08,17,16,58,18.90
2006,08,17,16,59,18.90
2006,08,17,17,00,19.10
2006,08,17,17,01,19.10
2006,08,17,17,02,19.30
2006,08,17,17,03,19.30
2006,08,17,17,04,19.40
2006,08,17,17,05,19.50
2006,08,17,17,06,19.60
2006,08,17,17,07,19.70
2006,08,17,17,08,19.70
2006,08,17,17,09,19.80
2006,08,17,17,10,19.80
2006,08,17,17,11,19.90
2006,08,17,17,12,19.90
2006,08,17,17,13,19.90
2006,08,17,17,14,19.90
2006,08,17,17,15,19.80
2006,08,17,17,16,19.70
2006,08,17,17,17,19.60
2006,08,17,17,18,19.50
2006,08,17,17,19,19.40
2006,08,17,17,20,19.40
2006,08,17,17,21,19.40
2006,08,17,17,22,19.50
2006,08,17,17,23,19.50